Location: *
(51.1248°S, 108.4023°W)
Time: 08:15:38
(UTC+00:00)

Envisat - Pass Details

Date: 27 September 2021
Orbit: 764 x 766 km, 98.2° (Epoch: 27 October)

Event Time Altitude Azimuth Distance (km) Brightness Sun altitude
Rises 09:51:56 0° 60° (ENE) 3,243 6.5 -26.3°
Reaches altitude 10° 09:54:42 10° 74° (ENE) 2,324 5.9 -26.0°
Maximum altitude 09:58:31 22° 123° (ESE) 1,670 5.5 -25.5°
Drops below altitude 10° 10:02:21 10° 171° (S) 2,344 6.1 -25.0°
Sets 10:05:09 0° 185° (S) 3,278 6.7 -24.7°
